Time,TemperatureF,DewpointF,PressureIn,WindDirection,WindDirectionDegrees,WindSpeedMPH,WindSpeedGustMPH,Humidity,HourlyPrecipIn,Conditions,Clouds,dailyrainin,SolarRadiationWatts/m^2,SoftwareType,DateUTC
2013-02-08 00:00:00,40.2,38.6,29.86,NW,312,0.0,0.0,94,0.00,,,0.00,0,WeatherTracker,2013-02-08 05:00:00,
2013-02-08 00:02:00,40.2,38.6,29.86,NW,312,0.0,0.0,94,0.00,,,0.00,0,WeatherTracker,2013-02-08 05:02:00,
2013-02-08 00:07:00,40.2,38.6,29.86,NW,314,0.0,0.0,94,0.00,,,0.00,0,WeatherTracker,2013-02-08 05:07:00,
2013-02-08 00:12:00,40.1,38.5,29.85,NE,55,2.0,0.0,94,0.00,,,0.00,0,WeatherTracker,2013-02-08 05:12:00,
2013-02-08 00:17:00,40.2,38.6,29.85,NNW,329,1.0,0.0,94,0.00,,,0.00,0,WeatherTracker,2013-02-08 05:17:00,
2013-02-08 00:22:00,40.1,38.5,29.85,NNE,32,0.0,0.0,94,0.00,,,0.00,0,WeatherTracker,2013-02-08 05:22:00,
2013-02-08 00:27:00,40.1,38.5,29.85,WNW,291,3.0,0.0,94,0.00,,,0.00,0,WeatherTracker,2013-02-08 05:27:00,
2013-02-08 00:32:00,40.1,38.5,29.85,North,5,0.0,0.0,94,0.00,,,0.00,0,WeatherTracker,2013-02-08 05:32:00,
2013-02-08 00:37:00,40.1,38.5,29.85,WNW,299,0.0,0.0,94,0.00,,,0.00,0,WeatherTracker,2013-02-08 05:37:00,
2013-02-08 00:42:00,40.1,38.5,29.84,WNW,303,1.0,0.0,94,0.00,,,0.00,0,WeatherTracker,2013-02-08 05:42:00,
2013-02-08 00:47:00,40.1,38.5,29.84,NNE,21,0.0,0.0,94,0.00,,,0.00,0,WeatherTracker,2013-02-08 05:47:00,
2013-02-08 00:52:00,40.0,38.4,29.84,NE,41,0.0,0.0,94,0.00,,,0.00,0,WeatherTracker,2013-02-08 05:52:00,
2013-02-08 00:57:00,40.0,38.4,29.84,North,11,0.0,0.0,94,0.00,,,0.00,0,WeatherTracker,2013-02-08 05:57:00,
2013-02-08 01:02:00,39.9,38.3,29.83,NNE,24,0.0,0.0,94,0.00,,,0.00,0,WeatherTracker,2013-02-08 06:02:00,
2013-02-08 01:07:00,39.9,38.3,29.83,NNE,19,0.0,0.0,94,0.00,,,0.00,0,WeatherTracker,2013-02-08 06:07:00,
2013-02-08 01:12:00,39.8,38.2,29.83,NNE,15,0.0,0.0,94,0.00,,,0.00,0,WeatherTracker,2013-02-08 06:12:00,
2013-02-08 01:17:00,39.8,38.2,29.83,North,349,2.0,0.0,94,0.00,,,0.00,0,WeatherTracker,2013-02-08 06:17:00,
2013-02-08 01:22:00,39.8,38.2,29.83,North,355,0.0,0.0,94,0.00,,,0.00,0,WeatherTracker,2013-02-08 06:22:00,
2013-02-08 01:27:00,39.8,38.2,29.82,NW,321,1.0,0.0,94,0.00,,,0.00,0,WeatherTracker,2013-02-08 06:27:00,
2013-02-08 01:32:00,39.7,38.1,29.82,NNE,19,0.0,0.0,94,0.00,,,0.00,0,WeatherTracker,2013-02-08 06:32:00,
2013-02-08 01:37:00,39.7,38.1,29.82,NW,315,2.0,0.0,94,0.00,,,0.00,0,WeatherTracker,2013-02-08 06:37:00,
2013-02-08 01:42:00,39.6,38.0,29.82,NW,314,0.0,0.0,94,0.00,,,0.00,0,WeatherTracker,2013-02-08 06:42:00,
2013-02-08 01:47:00,39.6,38.0,29.82,North,355,0.0,0.0,94,0.00,,,0.00,0,WeatherTracker,2013-02-08 06:47:00,
2013-02-08 01:52:00,39.5,37.9,29.82,NW,304,2.0,0.0,94,0.00,,,0.00,0,WeatherTracker,2013-02-08 06:52:00,
2013-02-08 01:57:00,39.5,37.9,29.82,NW,305,0.0,0.0,94,0.00,,,0.00,0,WeatherTracker,2013-02-08 06:57:00,
2013-02-08 02:02:00,39.5,37.9,29.82,NNE,15,4.0,0.0,94,0.00,,,0.00,0,WeatherTracker,2013-02-08 07:02:00,
2013-02-08 02:07:00,39.4,37.8,29.82,NW,316,2.0,0.0,94,0.00,,,0.00,0,WeatherTracker,2013-02-08 07:07:00,
2013-02-08 02:13:00,39.5,37.9,29.82,East,88,0.0,0.0,94,0.00,,,0.00,0,WeatherTracker,2013-02-08 07:13:00,
2013-02-08 02:18:00,39.4,37.8,29.82,North,355,0.0,0.0,94,0.00,,,0.00,0,WeatherTracker,2013-02-08 07:18:00,
2013-02-08 02:23:00,39.4,37.8,29.82,ENE,76,0.0,0.0,94,0.00,,,0.00,0,WeatherTracker,2013-02-08 07:23:00,
2013-02-08 02:28:00,39.4,37.8,29.82,NE,34,0.0,0.0,94,0.00,,,0.00,0,WeatherTracker,2013-02-08 07:28:00,
2013-02-08 02:33:00,39.4,37.8,29.82,NE,34,0.0,0.0,94,0.00,,,0.00,0,WeatherTracker,2013-02-08 07:33:00,
2013-02-08 02:38:00,39.4,37.8,29.82,NE,34,0.0,0.0,94,0.00,,,0.00,0,WeatherTracker,2013-02-08 07:38:00,
2013-02-08 02:43:00,39.4,37.8,29.81,NE,43,0.0,0.0,94,0.00,,,0.00,0,WeatherTracker,2013-02-08 07:43:00,
2013-02-08 02:48:00,39.4,37.8,29.81,NE,38,0.0,0.0,94,0.00,,,0.00,0,WeatherTracker,2013-02-08 07:48:00,
2013-02-08 02:53:00,39.4,37.8,29.80,NE,34,0.0,0.0,94,0.00,,,0.00,0,WeatherTracker,2013-02-08 07:53:00,
2013-02-08 02:58:00,39.4,37.8,29.81,NE,34,0.0,0.0,94,0.00,,,0.00,0,WeatherTracker,2013-02-08 07:58:00,
2013-02-08 03:03:00,39.4,37.8,29.81,ENE,72,0.0,0.0,94,0.00,,,0.00,0,WeatherTracker,2013-02-08 08:03:00,
2013-02-08 03:08:00,39.4,37.8,29.81,NE,45,0.0,0.0,94,0.00,,,0.00,0,WeatherTracker,2013-02-08 08:08:00,
2013-02-08 03:13:00,39.4,37.8,29.81,North,9,0.0,0.0,94,0.00,,,0.00,0,WeatherTracker,2013-02-08 08:13:00,
2013-02-08 03:18:00,39.4,37.8,29.81,North,10,0.0,0.0,94,0.00,,,0.00,0,WeatherTracker,2013-02-08 08:18:00,
2013-02-08 03:24:00,39.4,37.8,29.81,North,10,0.0,0.0,94,0.00,,,0.00,0,WeatherTracker,2013-02-08 08:24:00,
2013-02-08 03:28:00,39.4,37.8,29.80,North,10,0.0,0.0,94,0.00,,,0.00,0,WeatherTracker,2013-02-08 08:28:00,
2013-02-08 03:33:00,39.3,37.7,29.80,North,10,0.0,0.0,94,0.00,,,0.00,0,WeatherTracker,2013-02-08 08:33:00,
2013-02-08 03:39:00,39.3,37.7,29.80,North,10,0.0,0.0,94,0.00,,,0.00,0,WeatherTracker,2013-02-08 08:39:00,
2013-02-08 03:44:00,39.3,37.7,29.80,North,10,0.0,0.0,94,0.00,,,0.00,0,WeatherTracker,2013-02-08 08:44:00,
2013-02-08 03:49:00,39.3,37.7,29.80,North,10,0.0,0.0,94,0.00,,,0.00,0,WeatherTracker,2013-02-08 08:49:00,
2013-02-08 03:54:00,39.4,37.8,29.80,North,10,0.0,0.0,94,0.00,,,0.00,0,WeatherTracker,2013-02-08 08:54:00,
2013-02-08 03:59:00,39.3,37.7,29.80,North,10,0.0,0.0,94,0.00,,,0.00,0,WeatherTracker,2013-02-08 08:59:00,
2013-02-08 04:04:00,39.3,37.7,29.80,North,10,0.0,0.0,94,0.00,,,0.00,0,WeatherTracker,2013-02-08 09:04:00,
2013-02-08 04:09:00,39.3,37.7,29.80,North,10,0.0,0.0,94,0.00,,,0.00,0,WeatherTracker,2013-02-08 09:09:00,
2013-02-08 04:14:00,39.3,37.7,29.80,North,10,0.0,0.0,94,0.00,,,0.00,0,WeatherTracker,2013-02-08 09:14:00,
2013-02-08 04:19:00,39.3,37.7,29.80,North,10,0.0,0.0,94,0.00,,,0.00,0,WeatherTracker,2013-02-08 09:19:00,
2013-02-08 04:24:00,39.3,37.7,29.80,North,10,0.0,0.0,94,0.00,,,0.00,0,WeatherTracker,2013-02-08 09:24:00,
2013-02-08 04:29:00,39.3,37.7,29.80,North,10,0.0,0.0,94,0.00,,,0.00,0,WeatherTracker,2013-02-08 09:29:00,
2013-02-08 04:34:00,39.3,37.7,29.80,North,10,0.0,0.0,94,0.00,,,0.00,0,WeatherTracker,2013-02-08 09:34:00,
2013-02-08 04:39:00,39.3,37.7,29.80,North,10,0.0,0.0,94,0.00,,,0.00,0,WeatherTracker,2013-02-08 09:39:00,
2013-02-08 04:44:00,39.3,37.7,29.80,North,10,0.0,0.0,94,0.00,,,0.00,0,WeatherTracker,2013-02-08 09:44:00,
2013-02-08 04:49:00,39.3,37.7,29.80,North,10,0.0,0.0,94,0.00,,,0.00,0,WeatherTracker,2013-02-08 09:49:00,
2013-02-08 04:55:00,39.3,37.7,29.80,North,10,0.0,0.0,94,0.00,,,0.00,0,WeatherTracker,2013-02-08 09:55:00,
2013-02-08 05:00:00,39.3,38.0,29.80,North,10,0.0,0.0,95,0.00,,,0.00,0,WeatherTracker,2013-02-08 10:00:00,
2013-02-08 05:05:00,39.3,38.0,29.80,North,10,0.0,0.0,95,0.00,,,0.00,0,WeatherTracker,2013-02-08 10:05:00,
2013-02-08 05:10:00,39.3,38.0,29.80,North,10,0.0,0.0,95,0.00,,,0.00,0,WeatherTracker,2013-02-08 10:10:00,
2013-02-08 05:15:00,39.3,38.0,29.80,North,10,0.0,0.0,95,0.00,,,0.00,0,WeatherTracker,2013-02-08 10:15:00,
2013-02-08 05:20:00,39.3,38.0,29.79,North,10,0.0,0.0,95,0.00,,,0.00,0,WeatherTracker,2013-02-08 10:20:00,
2013-02-08 05:25:00,39.3,38.0,29.80,North,10,0.0,0.0,95,0.00,,,0.00,0,WeatherTracker,2013-02-08 10:25:00,
2013-02-08 05:30:00,39.3,38.0,29.79,North,10,0.0,0.0,95,0.00,,,0.00,0,WeatherTracker,2013-02-08 10:30:00,
2013-02-08 05:35:00,39.3,38.0,29.79,North,10,0.0,0.0,95,0.00,,,0.00,0,WeatherTracker,2013-02-08 10:35:00,
2013-02-08 05:40:00,39.3,38.0,29.79,North,10,0.0,0.0,95,0.00,,,0.00,0,WeatherTracker,2013-02-08 10:40:00,
2013-02-08 05:45:00,39.3,38.0,29.79,North,10,0.0,0.0,95,0.00,,,0.00,0,WeatherTracker,2013-02-08 10:45:00,
2013-02-08 05:50:00,39.3,38.0,29.79,North,10,0.0,0.0,95,0.00,,,0.00,0,WeatherTracker,2013-02-08 10:50:00,
2013-02-08 05:55:00,39.2,37.9,29.79,North,10,0.0,0.0,95,0.00,,,0.00,0,WeatherTracker,2013-02-08 10:55:00,
2013-02-08 06:00:00,39.2,37.9,29.79,North,10,0.0,0.0,95,0.00,,,0.00,0,WeatherTracker,2013-02-08 11:00:00,
2013-02-08 06:05:00,39.2,37.9,29.79,North,10,0.0,0.0,95,0.00,,,0.00,0,WeatherTracker,2013-02-08 11:05:00,
2013-02-08 06:10:00,39.2,37.9,29.79,North,10,0.0,0.0,95,0.00,,,0.00,0,WeatherTracker,2013-02-08 11:10:00,
2013-02-08 06:15:00,39.2,37.9,29.79,North,10,0.0,0.0,95,0.00,,,0.00,0,WeatherTracker,2013-02-08 11:15:00,
2013-02-08 06:20:00,39.2,37.9,29.79,North,10,0.0,0.0,95,0.00,,,0.00,0,WeatherTracker,2013-02-08 11:20:00,
2013-02-08 06:25:00,39.2,37.9,29.79,North,10,0.0,0.0,95,0.00,,,0.00,0,WeatherTracker,2013-02-08 11:25:00,
2013-02-08 06:30:00,39.2,37.9,29.79,North,10,0.0,0.0,95,0.00,,,0.00,0,WeatherTracker,2013-02-08 11:30:00,
2013-02-08 06:35:00,39.2,37.9,29.79,North,10,0.0,0.0,95,0.00,,,0.00,0,WeatherTracker,2013-02-08 11:35:00,
2013-02-08 06:40:00,39.2,37.9,29.79,North,10,0.0,0.0,95,0.00,,,0.00,0,WeatherTracker,2013-02-08 11:40:00,
2013-02-08 06:45:00,39.1,37.8,29.79,North,10,0.0,0.0,95,0.00,,,0.00,0,WeatherTracker,2013-02-08 11:45:00,
2013-02-08 06:50:00,39.1,37.8,29.79,North,10,0.0,0.0,95,0.00,,,0.00,0,WeatherTracker,2013-02-08 11:50:00,
2013-02-08 06:55:00,39.1,37.8,29.79,North,10,0.0,0.0,95,0.00,,,0.00,0,WeatherTracker,2013-02-08 11:55:00,
2013-02-08 07:00:00,39.1,37.8,29.79,North,10,0.0,0.0,95,0.00,,,0.00,0,WeatherTracker,2013-02-08 12:00:00,
2013-02-08 07:05:00,39.1,37.8,29.79,North,10,0.0,0.0,95,0.00,,,0.00,0,WeatherTracker,2013-02-08 12:05:00,
2013-02-08 07:10:00,39.1,37.8,29.79,North,10,0.0,0.0,95,0.00,,,0.00,0,WeatherTracker,2013-02-08 12:10:00,
2013-02-08 07:15:00,39.1,37.8,29.80,North,10,0.0,0.0,95,0.00,,,0.00,0,WeatherTracker,2013-02-08 12:15:00,
2013-02-08 07:20:00,39.0,37.7,29.80,North,10,0.0,0.0,95,0.00,,,0.00,0,WeatherTracker,2013-02-08 12:20:00,
2013-02-08 07:25:00,39.1,37.8,29.81,North,10,0.0,0.0,95,0.00,,,0.00,0,WeatherTracker,2013-02-08 12:25:00,
2013-02-08 07:31:00,39.1,37.8,29.81,North,10,0.0,0.0,95,0.00,,,0.00,0,WeatherTracker,2013-02-08 12:31:00,
2013-02-08 07:36:00,39.1,37.8,29.80,North,10,0.0,0.0,95,0.00,,,0.00,5,WeatherTracker,2013-02-08 12:36:00,
2013-02-08 07:41:00,39.1,37.8,29.81,North,10,0.0,0.0,95,0.00,,,0.00,5,WeatherTracker,2013-02-08 12:41:00,
2013-02-08 07:46:00,39.2,37.9,29.80,North,10,0.0,0.0,95,0.00,,,0.00,9,WeatherTracker,2013-02-08 12:46:00,
2013-02-08 07:51:00,39.2,37.9,29.80,North,10,0.0,0.0,95,0.00,,,0.00,11,WeatherTracker,2013-02-08 12:51:00,
2013-02-08 07:56:00,39.2,37.9,29.81,North,10,0.0,0.0,95,0.00,,,0.00,19,WeatherTracker,2013-02-08 12:56:00,
2013-02-08 08:01:00,39.2,37.9,29.81,North,10,0.0,0.0,95,0.00,,,0.00,47,WeatherTracker,2013-02-08 13:01:00,
2013-02-08 08:06:00,39.2,37.9,29.81,North,10,0.0,0.0,95,0.00,,,0.00,53,WeatherTracker,2013-02-08 13:06:00,
2013-02-08 08:11:00,39.3,38.0,29.81,North,10,0.0,0.0,95,0.00,,,0.00,44,WeatherTracker,2013-02-08 13:11:00,
2013-02-08 08:16:00,39.5,38.2,29.81,North,10,0.0,0.0,95,0.00,,,0.00,42,WeatherTracker,2013-02-08 13:16:00,
2013-02-08 08:21:00,39.7,38.4,29.81,North,10,0.0,0.0,95,0.00,,,0.00,49,WeatherTracker,2013-02-08 13:21:00,
2013-02-08 08:26:00,39.8,38.5,29.81,North,10,0.0,0.0,95,0.00,,,0.00,65,WeatherTracker,2013-02-08 13:26:00,
2013-02-08 08:31:00,40.0,38.7,29.82,North,10,0.0,0.0,95,0.00,,,0.00,77,WeatherTracker,2013-02-08 13:31:00,
2013-02-08 08:36:00,40.2,38.9,29.82,North,10,0.0,0.0,95,0.00,,,0.00,63,WeatherTracker,2013-02-08 13:36:00,
2013-02-08 08:41:00,40.3,39.0,29.82,North,10,0.0,0.0,95,0.00,,,0.00,46,WeatherTracker,2013-02-08 13:41:00,
2013-02-08 08:46:00,40.4,39.1,29.82,North,10,0.0,0.0,95,0.00,,,0.00,83,WeatherTracker,2013-02-08 13:46:00,
2013-02-08 08:51:00,40.6,39.3,29.81,North,10,0.0,0.0,95,0.00,,,0.00,158,WeatherTracker,2013-02-08 13:51:00,
2013-02-08 08:56:00,40.9,39.6,29.81,North,10,0.0,0.0,95,0.00,,,0.00,100,WeatherTracker,2013-02-08 13:56:00,
2013-02-08 09:01:00,41.1,39.8,29.82,North,10,0.0,0.0,95,0.00,,,0.00,114,WeatherTracker,2013-02-08 14:01:00,
2013-02-08 09:06:00,41.4,40.3,29.81,North,9,0.0,0.0,96,0.00,,,0.00,95,WeatherTracker,2013-02-08 14:06:00,
2013-02-08 09:11:00,41.7,40.4,29.81,North,10,0.0,0.0,95,0.00,,,0.00,83,WeatherTracker,2013-02-08 14:11:00,
2013-02-08 09:16:00,42.1,40.8,29.81,North,5,0.0,0.0,95,0.00,,,0.00,134,WeatherTracker,2013-02-08 14:16:00,
2013-02-08 09:21:00,42.7,41.6,29.81,North,5,0.0,0.0,96,0.00,,,0.00,81,WeatherTracker,2013-02-08 14:21:00,
2013-02-08 09:26:00,43.2,42.1,29.81,North,5,0.0,0.0,96,0.00,,,0.00,301,WeatherTracker,2013-02-08 14:26:00,
2013-02-08 09:32:00,43.8,42.7,29.81,North,5,0.0,0.0,96,0.00,,,0.00,390,WeatherTracker,2013-02-08 14:32:00,
2013-02-08 09:37:00,44.3,43.2,29.82,NNW,344,0.0,0.0,96,0.00,,,0.00,301,WeatherTracker,2013-02-08 14:37:00,
2013-02-08 09:42:00,44.9,43.6,29.81,NNW,344,0.0,0.0,95,0.00,,,0.00,283,WeatherTracker,2013-02-08 14:42:00,
2013-02-08 09:47:00,45.2,43.6,29.82,WNW,299,1.0,0.0,94,0.00,,,0.00,128,WeatherTracker,2013-02-08 14:47:00,
2013-02-08 09:52:00,45.2,43.0,29.82,SE,141,0.0,0.0,92,0.00,,,0.00,223,WeatherTracker,2013-02-08 14:52:00,
2013-02-08 09:57:00,45.5,43.6,29.82,East,86,0.0,0.0,93,0.00,,,0.00,144,WeatherTracker,2013-02-08 14:57:00,
2013-02-08 10:02:00,45.7,43.5,29.82,East,86,0.0,0.0,92,0.00,,,0.00,125,WeatherTracker,2013-02-08 15:02:00,
2013-02-08 10:07:00,45.7,43.2,29.82,East,85,0.0,0.0,91,0.00,,,0.00,193,WeatherTracker,2013-02-08 15:07:00,
2013-02-08 10:12:00,45.7,42.9,29.82,NNE,22,0.0,0.0,90,0.00,,,0.00,149,WeatherTracker,2013-02-08 15:12:00,
2013-02-08 10:17:00,45.7,42.9,29.82,NNE,24,0.0,0.0,90,0.00,,,0.00,181,WeatherTracker,2013-02-08 15:17:00,
2013-02-08 10:22:00,45.7,42.6,29.82,North,355,0.0,0.0,89,0.00,,,0.00,176,WeatherTracker,2013-02-08 15:22:00,
2013-02-08 10:27:00,45.8,42.7,29.82,West,271,0.0,0.0,89,0.00,,,0.00,185,WeatherTracker,2013-02-08 15:27:00,
2013-02-08 10:32:00,46.0,43.2,29.82,West,271,0.0,0.0,90,0.00,,,0.00,197,WeatherTracker,2013-02-08 15:32:00,
2013-02-08 10:37:00,46.5,43.4,29.82,South,184,0.0,0.0,89,0.00,,,0.00,250,WeatherTracker,2013-02-08 15:37:00,
2013-02-08 10:42:00,47.2,44.4,29.82,SSE,162,1.0,0.0,90,0.00,,,0.00,775,WeatherTracker,2013-02-08 15:42:00,
2013-02-08 10:47:00,48.2,44.8,29.82,SSE,152,0.0,0.0,88,0.00,,,0.00,371,WeatherTracker,2013-02-08 15:47:00,
2013-02-08 10:52:00,48.7,45.0,29.82,SE,146,0.0,0.0,87,0.00,,,0.00,237,WeatherTracker,2013-02-08 15:52:00,
2013-02-08 10:57:00,48.5,44.2,29.82,South,177,1.0,0.0,85,0.00,,,0.00,149,WeatherTracker,2013-02-08 15:57:00,
2013-02-08 11:02:00,48.4,44.1,29.82,SE,143,1.0,0.0,85,0.00,,,0.00,116,WeatherTracker,2013-02-08 16:02:00,
2013-02-08 11:07:00,48.1,43.8,29.82,North,355,2.0,0.0,85,0.00,,,0.00,195,WeatherTracker,2013-02-08 16:07:00,
2013-02-08 11:12:00,48.1,44.4,29.82,South,187,0.0,0.0,87,0.00,,,0.00,162,WeatherTracker,2013-02-08 16:12:00,
2013-02-08 11:17:00,48.0,43.7,29.82,NW,306,0.0,0.0,85,0.00,,,0.00,156,WeatherTracker,2013-02-08 16:17:00,
2013-02-08 11:22:00,48.0,44.0,29.82,SW,233,1.0,0.0,86,0.00,,,0.00,107,WeatherTracker,2013-02-08 16:22:00,
2013-02-08 11:27:00,48.0,43.7,29.82,North,5,0.0,0.0,85,0.00,,,0.00,142,WeatherTracker,2013-02-08 16:27:00,
2013-02-08 11:32:00,47.9,43.9,29.82,North,360,0.0,0.0,86,0.00,,,0.00,176,WeatherTracker,2013-02-08 16:32:00,
2013-02-08 11:37:00,48.0,44.0,29.82,NW,323,2.0,0.0,86,0.00,,,0.00,223,WeatherTracker,2013-02-08 16:37:00,
2013-02-08 11:43:00,48.0,44.0,29.82,SW,216,0.0,0.0,86,0.00,,,0.00,104,WeatherTracker,2013-02-08 16:43:00,
2013-02-08 11:48:00,48.0,44.0,29.82,West,277,0.0,0.0,86,0.00,,,0.00,118,WeatherTracker,2013-02-08 16:48:00,
2013-02-08 11:53:00,47.9,43.9,29.82,NE,41,0.0,0.0,86,0.00,,,0.00,74,WeatherTracker,2013-02-08 16:53:00,
2013-02-08 11:58:00,47.7,44.0,29.82,NE,54,0.0,0.0,87,0.00,,,0.00,104,WeatherTracker,2013-02-08 16:58:00,
2013-02-08 12:03:00,47.5,43.8,29.82,North,351,0.0,0.0,87,0.00,,,0.00,83,WeatherTracker,2013-02-08 17:03:00,
2013-02-08 12:08:00,47.4,43.7,29.82,North,351,0.0,0.0,87,0.00,,,0.00,81,WeatherTracker,2013-02-08 17:08:00,
2013-02-08 12:13:00,47.4,44.0,29.82,North,350,0.0,0.0,88,0.00,,,0.00,83,WeatherTracker,2013-02-08 17:13:00,
2013-02-08 12:18:00,47.3,43.9,29.81,North,350,0.0,0.0,88,0.00,,,0.00,83,WeatherTracker,2013-02-08 17:18:00,
2013-02-08 12:23:00,47.3,43.9,29.82,North,351,0.0,0.0,88,0.00,,,0.00,69,WeatherTracker,2013-02-08 17:23:00,
2013-02-08 12:28:00,47.2,44.1,29.81,North,9,0.0,0.0,89,0.00,,,0.00,139,WeatherTracker,2013-02-08 17:28:00,
2013-02-08 12:33:00,47.3,43.9,29.81,North,9,0.0,0.0,88,0.00,,,0.00,128,WeatherTracker,2013-02-08 17:33:00,
2013-02-08 12:38:00,47.3,43.9,29.81,North,9,0.0,0.0,88,0.00,,,0.00,102,WeatherTracker,2013-02-08 17:38:00,
2013-02-08 12:43:00,47.4,44.3,29.80,North,9,0.0,0.0,89,0.00,,,0.00,146,WeatherTracker,2013-02-08 17:43:00,
2013-02-08 12:48:00,47.7,44.6,29.80,North,9,0.0,0.0,89,0.00,,,0.00,146,WeatherTracker,2013-02-08 17:48:00,
2013-02-08 12:53:00,47.9,44.5,29.80,North,9,0.0,0.0,88,0.00,,,0.00,111,WeatherTracker,2013-02-08 17:53:00,
2013-02-08 12:58:00,48.0,44.6,29.80,North,9,0.0,0.0,88,0.00,,,0.00,149,WeatherTracker,2013-02-08 17:58:00,
2013-02-08 13:04:00,48.0,44.3,29.80,North,9,0.0,0.0,87,0.00,,,0.00,137,WeatherTracker,2013-02-08 18:04:00,
2013-02-08 13:09:00,48.2,44.5,29.80,North,9,0.0,0.0,87,0.00,,,0.00,206,WeatherTracker,2013-02-08 18:09:00,
2013-02-08 13:14:00,48.4,44.7,29.80,North,9,0.0,0.0,87,0.00,,,0.00,165,WeatherTracker,2013-02-08 18:14:00,
2013-02-08 13:19:00,48.7,44.7,29.79,North,9,0.0,0.0,86,0.00,,,0.00,202,WeatherTracker,2013-02-08 18:19:00,
2013-02-08 13:24:00,49.0,44.7,29.79,ENE,78,0.0,0.0,85,0.00,,,0.00,220,WeatherTracker,2013-02-08 18:24:00,
2013-02-08 13:29:00,49.2,44.9,29.79,NNW,340,0.0,0.0,85,0.00,,,0.00,213,WeatherTracker,2013-02-08 18:29:00,
2013-02-08 13:34:00,49.3,44.7,29.79,North,5,3.0,0.0,84,0.00,,,0.00,229,WeatherTracker,2013-02-08 18:34:00,
2013-02-08 13:39:00,49.4,44.5,29.80,SE,124,0.0,0.0,83,0.00,,,0.00,183,WeatherTracker,2013-02-08 18:39:00,
2013-02-08 13:44:00,49.3,44.0,29.79,NNE,12,2.0,0.0,82,0.00,,,0.00,162,WeatherTracker,2013-02-08 18:44:00,
2013-02-08 13:49:00,49.2,43.9,29.80,NNE,13,0.0,0.0,82,0.00,,,0.00,186,WeatherTracker,2013-02-08 18:49:00,
2013-02-08 13:54:00,49.2,43.6,29.79,WNW,299,4.0,0.0,81,0.00,,,0.00,155,WeatherTracker,2013-02-08 18:54:00,
2013-02-08 13:59:00,49.0,43.7,29.79,North,360,2.0,0.0,82,0.00,,,0.00,128,WeatherTracker,2013-02-08 18:59:00,
2013-02-08 14:04:00,48.8,43.2,29.80,NNW,336,0.0,0.0,81,0.00,,,0.00,142,WeatherTracker,2013-02-08 19:04:00,
2013-02-08 14:09:00,48.6,43.4,29.80,NNW,338,0.0,0.0,82,0.00,,,0.00,97,WeatherTracker,2013-02-08 19:09:00,
2013-02-08 14:14:00,48.5,43.3,29.80,North,5,1.0,0.0,82,0.00,,,0.00,90,WeatherTracker,2013-02-08 19:14:00,
2013-02-08 14:19:00,48.2,43.0,29.80,NE,36,3.0,0.0,82,0.00,,,0.00,69,WeatherTracker,2013-02-08 19:19:00,
2013-02-08 14:24:00,48.0,42.8,29.80,NNE,30,3.0,0.0,82,0.00,,,0.00,69,WeatherTracker,2013-02-08 19:24:00,
2013-02-08 14:29:00,47.7,42.8,29.80,North,355,3.0,0.0,83,0.00,,,0.00,44,WeatherTracker,2013-02-08 19:29:00,
2013-02-08 14:35:00,47.2,42.6,29.81,NW,308,3.0,0.0,84,0.00,,,0.00,28,WeatherTracker,2013-02-08 19:35:00,
2013-02-08 14:40:00,46.8,41.9,29.81,SW,226,1.0,0.0,83,0.00,,,0.00,40,WeatherTracker,2013-02-08 19:40:00,
2013-02-08 14:45:00,46.4,40.2,29.81,North,360,5.0,0.0,79,0.00,,,0.00,93,WeatherTracker,2013-02-08 19:45:00,
2013-02-08 14:50:00,46.0,38.5,29.81,ENE,68,1.0,0.0,75,0.00,,,0.00,102,WeatherTracker,2013-02-08 19:50:00,
2013-02-08 14:55:00,45.9,38.1,29.81,NE,44,3.0,0.0,74,0.00,,,0.00,169,WeatherTracker,2013-02-08 19:55:00,
2013-02-08 15:00:00,46.0,38.2,29.81,North,349,0.0,0.0,74,0.00,,,0.00,160,WeatherTracker,2013-02-08 20:00:00,
2013-02-08 15:05:00,46.1,37.6,29.81,ESE,118,0.0,0.0,72,0.00,,,0.00,121,WeatherTracker,2013-02-08 20:05:00,
2013-02-08 15:10:00,46.4,37.9,29.81,ENE,57,4.0,0.0,72,0.00,,,0.00,70,WeatherTracker,2013-02-08 20:10:00,
2013-02-08 15:15:00,46.9,36.9,29.82,SSE,164,0.0,0.0,68,0.00,,,0.00,40,WeatherTracker,2013-02-08 20:15:00,
2013-02-08 15:20:00,47.0,36.2,29.82,SSE,148,3.0,0.0,66,0.00,,,0.00,54,WeatherTracker,2013-02-08 20:20:00,
2013-02-08 15:25:00,47.0,35.9,29.82,NE,49,2.0,0.0,65,0.00,,,0.00,47,WeatherTracker,2013-02-08 20:25:00,
2013-02-08 15:30:00,47.3,35.4,29.81,NNE,26,1.0,0.0,63,0.00,,,0.00,54,WeatherTracker,2013-02-08 20:30:00,
2013-02-08 15:35:00,47.4,34.2,29.82,North,355,4.0,0.0,60,0.00,,,0.00,35,WeatherTracker,2013-02-08 20:35:00,
2013-02-08 15:40:00,47.7,34.1,29.82,NE,49,1.0,0.0,59,0.00,,,0.00,39,WeatherTracker,2013-02-08 20:40:00,
2013-02-08 15:45:00,47.9,33.8,29.82,SSW,193,3.0,0.0,58,0.00,,,0.00,37,WeatherTracker,2013-02-08 20:45:00,
2013-02-08 15:50:00,48.0,33.5,29.82,ESE,114,3.0,0.0,57,0.00,,,0.00,32,WeatherTracker,2013-02-08 20:50:00,
2013-02-08 15:55:00,48.0,33.1,29.82,NNE,32,2.0,0.0,56,0.00,,,0.00,32,WeatherTracker,2013-02-08 20:55:00,
2013-02-08 16:00:00,48.0,32.2,29.82,ENE,67,0.0,0.0,54,0.00,,,0.00,28,WeatherTracker,2013-02-08 21:00:00,
2013-02-08 16:05:00,47.9,31.6,29.82,ESE,121,5.0,0.0,53,0.00,,,0.00,26,WeatherTracker,2013-02-08 21:05:00,
2013-02-08 16:10:00,47.8,31.5,29.82,East,95,3.0,0.0,53,0.00,,,0.00,26,WeatherTracker,2013-02-08 21:10:00,
2013-02-08 16:15:00,47.7,30.0,29.82,South,169,5.0,0.0,50,0.00,,,0.00,25,WeatherTracker,2013-02-08 21:15:00,
2013-02-08 16:20:00,47.7,30.0,29.82,NE,36,4.0,0.0,50,0.00,,,0.00,25,WeatherTracker,2013-02-08 21:20:00,
2013-02-08 16:25:00,47.6,30.4,29.83,South,186,0.0,0.0,51,0.00,,,0.00,26,WeatherTracker,2013-02-08 21:25:00,
2013-02-08 16:30:00,47.5,30.8,29.83,SE,130,2.0,0.0,52,0.00,,,0.00,25,WeatherTracker,2013-02-08 21:30:00,
2013-02-08 16:36:00,47.4,30.2,29.83,ENE,68,2.0,0.0,51,0.00,,,0.00,25,WeatherTracker,2013-02-08 21:36:00,
2013-02-08 16:41:00,47.4,30.7,29.84,East,98,2.0,0.0,52,0.00,,,0.00,21,WeatherTracker,2013-02-08 21:41:00,
2013-02-08 16:46:00,47.4,30.7,29.84,East,81,1.0,0.0,52,0.00,,,0.00,21,WeatherTracker,2013-02-08 21:46:00,
2013-02-08 16:51:00,47.3,30.6,29.84,North,350,4.0,0.0,52,0.00,,,0.00,21,WeatherTracker,2013-02-08 21:51:00,
2013-02-08 16:56:00,47.2,30.0,29.84,NNW,331,1.0,0.0,51,0.00,,,0.00,19,WeatherTracker,2013-02-08 21:56:00,
2013-02-08 17:01:00,47.0,31.2,29.84,SE,138,0.0,0.0,54,0.00,,,0.00,18,WeatherTracker,2013-02-08 22:01:00,
2013-02-08 17:06:00,46.7,29.5,29.84,SSE,157,0.0,0.0,51,0.00,,,0.00,16,WeatherTracker,2013-02-08 22:06:00,
2013-02-08 17:11:00,46.4,28.8,29.85,South,190,4.0,0.0,50,0.00,,,0.00,14,WeatherTracker,2013-02-08 22:11:00,
2013-02-08 17:16:00,46.2,29.6,29.85,South,173,0.0,0.0,52,0.00,,,0.00,12,WeatherTracker,2013-02-08 22:16:00,
2013-02-08 17:21:00,46.0,29.4,29.85,East,98,0.0,0.0,52,0.00,,,0.00,12,WeatherTracker,2013-02-08 22:21:00,
2013-02-08 17:26:00,45.4,29.3,29.85,West,263,0.0,0.0,53,0.00,,,0.00,12,WeatherTracker,2013-02-08 22:26:00,
2013-02-08 17:31:00,45.0,31.1,29.85,South,169,0.0,0.0,58,0.00,,,0.00,11,WeatherTracker,2013-02-08 22:31:00,
2013-02-08 17:36:00,44.6,29.0,29.86,ESE,117,0.0,0.0,54,0.00,,,0.00,11,WeatherTracker,2013-02-08 22:36:00,
2013-02-08 17:41:00,44.4,28.8,29.86,ESE,123,0.0,0.0,54,0.00,,,0.00,9,WeatherTracker,2013-02-08 22:41:00,
2013-02-08 17:46:00,44.2,29.1,29.86,ENE,76,6.0,0.0,55,0.00,,,0.00,9,WeatherTracker,2013-02-08 22:46:00,
2013-02-08 17:51:00,44.0,28.9,29.87,SSE,150,0.0,0.0,55,0.00,,,0.00,7,WeatherTracker,2013-02-08 22:51:00,
2013-02-08 17:56:00,43.5,28.4,29.87,NNE,18,0.0,0.0,55,0.00,,,0.00,7,WeatherTracker,2013-02-08 22:56:00,
2013-02-08 18:01:00,43.1,29.3,29.87,ESE,118,4.0,0.0,58,0.00,,,0.00,5,WeatherTracker,2013-02-08 23:01:00,
2013-02-08 18:06:00,43.0,28.0,29.87,WNW,286,0.0,0.0,55,0.00,,,0.00,0,WeatherTracker,2013-02-08 23:06:00,
2013-02-08 18:11:00,42.7,30.6,29.88,SSE,164,0.0,0.0,62,0.00,,,0.00,5,WeatherTracker,2013-02-08 23:11:00,
2013-02-08 18:16:00,42.1,30.0,29.88,NNW,348,0.0,0.0,62,0.00,,,0.00,0,WeatherTracker,2013-02-08 23:16:00,
2013-02-08 18:21:00,41.4,30.5,29.88,North,349,2.0,0.0,65,0.00,,,0.00,0,WeatherTracker,2013-02-08 23:21:00,
2013-02-08 18:26:00,40.5,28.1,29.88,WNW,298,1.0,0.0,61,0.00,,,0.00,0,WeatherTracker,2013-02-08 23:26:00,
2013-02-08 18:31:00,40.0,29.9,29.88,NNE,33,0.0,0.0,67,0.00,,,0.00,0,WeatherTracker,2013-02-08 23:31:00,
2013-02-08 18:37:00,39.4,29.0,29.89,NNE,33,0.0,0.0,66,0.00,,,0.00,0,WeatherTracker,2013-02-08 23:37:00,
2013-02-08 18:42:00,39.0,29.7,29.89,NW,324,0.0,0.0,69,0.00,,,0.00,0,WeatherTracker,2013-02-08 23:42:00,
2013-02-08 18:47:00,38.7,27.6,29.89,East,94,0.0,0.0,64,0.00,,,0.00,0,WeatherTracker,2013-02-08 23:47:00,
2013-02-08 18:52:00,38.5,29.2,29.89,West,278,0.0,0.0,69,0.00,,,0.00,0,WeatherTracker,2013-02-08 23:52:00,
2013-02-08 18:57:00,38.3,28.3,29.90,NW,309,0.0,0.0,67,0.00,,,0.00,0,WeatherTracker,2013-02-08 23:57:00,
2013-02-08 19:02:00,38.4,29.1,29.90,NW,311,0.0,0.0,69,0.00,,,0.00,0,WeatherTracker,2013-02-09 00:02:00,
2013-02-08 19:07:00,38.1,28.5,29.90,WSW,245,0.0,0.0,68,0.00,,,0.00,0,WeatherTracker,2013-02-09 00:07:00,
2013-02-08 19:12:00,37.9,29.0,29.90,West,267,0.0,0.0,70,0.00,,,0.00,0,WeatherTracker,2013-02-09 00:12:00,
2013-02-08 19:17:00,37.6,29.1,29.90,West,267,0.0,0.0,71,0.00,,,0.00,0,WeatherTracker,2013-02-09 00:17:00,
2013-02-08 19:22:00,37.3,29.5,29.91,West,267,0.0,0.0,73,0.00,,,0.00,0,WeatherTracker,2013-02-09 00:22:00,
2013-02-08 19:27:00,36.9,29.1,29.91,West,267,1.0,0.0,73,0.00,,,0.00,0,WeatherTracker,2013-02-09 00:27:00,
2013-02-08 19:32:00,36.5,29.0,29.91,West,267,0.0,0.0,74,0.00,,,0.00,0,WeatherTracker,2013-02-09 00:32:00,
2013-02-08 19:37:00,36.1,28.6,29.91,West,267,0.0,0.0,74,0.00,,,0.00,0,WeatherTracker,2013-02-09 00:37:00,
2013-02-08 19:42:00,35.8,29.0,29.91,West,267,0.0,0.0,76,0.00,,,0.00,0,WeatherTracker,2013-02-09 00:42:00,
2013-02-08 19:47:00,35.6,28.8,29.91,West,267,0.0,0.0,76,0.00,,,0.00,0,WeatherTracker,2013-02-09 00:47:00,
2013-02-08 19:52:00,35.4,28.9,29.91,West,267,0.0,0.0,77,0.00,,,0.00,0,WeatherTracker,2013-02-09 00:52:00,
2013-02-08 19:57:00,35.2,28.7,29.92,West,268,0.0,0.0,77,0.00,,,0.00,0,WeatherTracker,2013-02-09 00:57:00,
2013-02-08 20:02:00,35.3,28.8,29.92,WSW,256,0.0,0.0,77,0.00,,,0.00,0,WeatherTracker,2013-02-09 01:02:00,
2013-02-08 20:07:00,35.6,28.5,29.92,WNW,287,0.0,0.0,75,0.00,,,0.00,0,WeatherTracker,2013-02-09 01:07:00,
2013-02-08 20:12:00,35.8,29.3,29.92,WNW,287,1.0,0.0,77,0.00,,,0.00,0,WeatherTracker,2013-02-09 01:12:00,
2013-02-08 20:17:00,35.7,28.9,29.92,NW,321,0.0,0.0,76,0.00,,,0.00,0,WeatherTracker,2013-02-09 01:17:00,
2013-02-08 20:22:00,35.7,29.2,29.92,NW,323,0.0,0.0,77,0.00,,,0.00,0,WeatherTracker,2013-02-09 01:22:00,
2013-02-08 20:27:00,35.7,29.5,29.93,NNW,329,0.0,0.0,78,0.00,,,0.00,0,WeatherTracker,2013-02-09 01:27:00,
2013-02-08 20:32:00,35.7,29.2,29.93,NNW,329,0.0,0.0,77,0.00,,,0.00,0,WeatherTracker,2013-02-09 01:32:00,
2013-02-08 20:37:00,35.8,29.6,29.93,North,360,2.0,0.0,78,0.00,,,0.00,0,WeatherTracker,2013-02-09 01:37:00,
2013-02-08 20:42:00,35.8,29.6,29.94,NW,320,0.0,0.0,78,0.00,,,0.00,0,WeatherTracker,2013-02-09 01:42:00,
2013-02-08 20:48:00,35.6,29.4,29.94,NW,319,0.0,0.0,78,0.00,,,0.00,0,WeatherTracker,2013-02-09 01:48:00,
2013-02-08 20:53:00,35.4,29.2,29.94,NNW,343,0.0,0.0,78,0.00,,,0.00,0,WeatherTracker,2013-02-09 01:53:00,
2013-02-08 20:58:00,35.1,29.3,29.94,North,11,0.0,0.0,79,0.00,,,0.00,0,WeatherTracker,2013-02-09 01:58:00,
2013-02-08 21:03:00,35.0,29.2,29.95,North,10,1.0,0.0,79,0.00,,,0.00,0,WeatherTracker,2013-02-09 02:03:00,
2013-02-08 21:08:00,34.7,28.9,29.95,NW,313,2.0,0.0,79,0.00,,,0.00,0,WeatherTracker,2013-02-09 02:08:00,
2013-02-08 21:13:00,34.4,28.9,29.95,SSW,209,0.0,0.0,80,0.00,,,0.00,0,WeatherTracker,2013-02-09 02:13:00,
2013-02-08 21:18:00,34.4,28.9,29.95,WNW,300,0.0,0.0,80,0.00,,,0.00,0,WeatherTracker,2013-02-09 02:18:00,
2013-02-08 21:23:00,34.3,28.8,29.95,West,275,0.0,0.0,80,0.00,,,0.00,0,WeatherTracker,2013-02-09 02:23:00,
2013-02-08 21:28:00,34.1,28.6,29.95,West,268,1.0,0.0,80,0.00,,,0.00,0,WeatherTracker,2013-02-09 02:28:00,
2013-02-08 21:33:00,34.0,28.5,29.96,South,180,0.0,0.0,80,0.00,,,0.00,0,WeatherTracker,2013-02-09 02:33:00,
2013-02-08 21:38:00,34.0,28.5,29.96,East,98,1.0,0.0,80,0.00,,,0.00,0,WeatherTracker,2013-02-09 02:38:00,
2013-02-08 21:43:00,33.8,28.3,29.96,WNW,294,3.0,0.0,80,0.00,,,0.00,0,WeatherTracker,2013-02-09 02:43:00,
2013-02-08 21:48:00,33.7,28.2,29.96,NW,314,0.0,0.0,80,0.00,,,0.00,0,WeatherTracker,2013-02-09 02:48:00,
2013-02-08 21:53:00,33.7,28.2,29.96,WNW,294,1.0,0.0,80,0.00,,,0.00,0,WeatherTracker,2013-02-09 02:53:00,
2013-02-08 21:58:00,33.8,28.3,29.96,WNW,300,0.0,0.0,80,0.00,,,0.00,0,WeatherTracker,2013-02-09 02:58:00,
2013-02-08 22:03:00,33.7,27.9,29.96,WNW,299,0.0,0.0,79,0.00,,,0.00,0,WeatherTracker,2013-02-09 03:03:00,
2013-02-08 22:08:00,33.6,28.1,29.96,WNW,287,2.0,0.0,80,0.00,,,0.00,0,WeatherTracker,2013-02-09 03:08:00,
2013-02-08 22:13:00,33.7,27.9,29.97,NE,38,0.0,0.0,79,0.00,,,0.00,0,WeatherTracker,2013-02-09 03:13:00,
2013-02-08 22:18:00,33.6,27.8,29.97,NNE,26,0.0,0.0,79,0.00,,,0.00,0,WeatherTracker,2013-02-09 03:18:00,
2013-02-08 22:23:00,33.5,27.7,29.97,North,10,0.0,0.0,79,0.00,,,0.00,0,WeatherTracker,2013-02-09 03:23:00,
2013-02-08 22:28:00,33.3,27.5,29.97,East,91,0.0,0.0,79,0.00,,,0.00,0,WeatherTracker,2013-02-09 03:28:00,
2013-02-08 22:33:00,33.2,27.4,29.98,ESE,117,0.0,0.0,79,0.00,,,0.00,0,WeatherTracker,2013-02-09 03:33:00,
2013-02-08 22:38:00,33.1,27.3,29.98,ESE,121,0.0,0.0,79,0.00,,,0.00,0,WeatherTracker,2013-02-09 03:38:00,
2013-02-08 22:43:00,32.9,27.4,29.98,ESE,121,0.0,0.0,80,0.00,,,0.00,0,WeatherTracker,2013-02-09 03:43:00,
2013-02-08 22:48:00,32.6,27.4,29.98,SSW,200,0.0,0.0,81,0.00,,,0.00,0,WeatherTracker,2013-02-09 03:48:00,
2013-02-08 22:53:00,32.4,27.2,29.98,SSW,200,0.0,0.0,81,0.00,,,0.00,0,WeatherTracker,2013-02-09 03:53:00,
2013-02-08 22:58:00,32.3,27.4,29.98,SSW,200,0.0,0.0,82,0.00,,,0.00,0,WeatherTracker,2013-02-09 03:58:00,
2013-02-08 23:03:00,32.0,27.1,29.99,SSW,200,1.0,0.0,82,0.00,,,0.00,0,WeatherTracker,2013-02-09 04:03:00,
2013-02-08 23:08:00,31.9,27.0,29.99,SSW,200,0.0,0.0,82,0.00,,,0.00,0,WeatherTracker,2013-02-09 04:08:00,
2013-02-08 23:13:00,31.7,27.1,29.99,SSW,200,1.0,0.0,83,0.00,,,0.00,0,WeatherTracker,2013-02-09 04:13:00,
2013-02-08 23:18:00,31.5,26.9,30.00,SSW,200,0.0,0.0,83,0.00,,,0.00,0,WeatherTracker,2013-02-09 04:18:00,
2013-02-08 23:24:00,31.3,27.0,30.00,SSW,200,0.0,0.0,84,0.00,,,0.00,0,WeatherTracker,2013-02-09 04:24:00,
2013-02-08 23:29:00,31.1,26.8,29.99,SW,223,2.0,0.0,84,0.00,,,0.00,0,WeatherTracker,2013-02-09 04:29:00,
2013-02-08 23:34:00,31.0,26.7,29.99,SW,223,0.0,0.0,84,0.00,,,0.00,0,WeatherTracker,2013-02-09 04:34:00,
2013-02-08 23:39:00,31.0,26.5,29.99,SSW,203,0.0,0.0,83,0.00,,,0.00,0,WeatherTracker,2013-02-09 04:39:00,
2013-02-08 23:44:00,30.9,26.4,29.99,SSW,210,0.0,0.0,83,0.00,,,0.00,0,WeatherTracker,2013-02-09 04:44:00,
2013-02-08 23:49:00,30.9,26.6,29.99,SSW,211,0.0,0.0,84,0.00,,,0.00,0,WeatherTracker,2013-02-09 04:49:00,
2013-02-08 23:54:00,30.9,26.6,29.98,SSW,210,0.0,0.0,84,0.00,,,0.00,0,WeatherTracker,2013-02-09 04:54:00,
2013-02-08 23:59:00,30.7,26.2,29.98,SW,217,0.0,0.0,83,0.00,,,0.00,0,WeatherTracker,2013-02-09 04:59:00,